logo Eve Who17,867,958 Characters
839,336 Corporations
9,329 Alliances

Home Pilots Corporations Alliances FAQ 

corp logo
alli logo
character image
Character:Adrenalinemax
Corporation:Lap Dancers
Alliance:Brothers of Tangra
Sec. Status:4.7
Links:zKillboard
EveSkillBoard
Eve-Search
Last Updated: 2019-08-16 21:22:09 | 698115752
Corp. History
 NameJoinedLeft
corp logoLap Dancers2016/12/03 00:39
corp logoPerkone2016/12/03 00:392016/12/03 00:38
corp logoHabitual Euthanasia2015/02/18 00:222016/12/03 00:38
corp logoPerkone2015/02/18 00:222015/02/18 00:21
corp logoLap Dancers2013/07/16 11:372015/02/18 00:21
corp logoPerkone2013/07/16 11:362013/07/16 11:36
corp logoHabitual Euthanasia2012/07/30 19:112013/07/16 11:35
corp logoPerkone2012/05/08 04:442012/07/30 19:10
corp logoThe Graduates2012/03/12 18:152012/05/08 04:43
corp logoPerkone2012/03/12 17:302012/03/12 18:14
corp logoHigh Tech Industries2011/12/01 00:332012/03/12 17:29
corp logoPerkone2011/11/30 01:412011/12/01 00:32
corp logoMacabre Votum2011/11/17 00:012011/11/30 01:40
corp logoPerkone2011/11/04 19:022011/11/17 00:00
corp logoMacabre Votum2011/08/27 02:062011/11/04 19:01
corp logoMetalworks Foundry2011/05/02 21:292011/08/27 02:05
corp logoMetalworks2010/04/25 01:532011/05/02 21:28
corp logoSerenity Ascension2010/03/10 00:032010/04/25 01:52
corp logoPerkone2010/03/01 15:502010/03/10 00:02
corp logoIoncross2010/02/09 21:322010/03/01 15:49
corp logoPerkone2010/02/07 03:182010/02/09 21:31
corp logoKinetic Vector2008/01/03 21:322010/02/07 03:17
corp logoPerkone2008/01/03 18:012008/01/03 21:31
corp logoCongregatio2007/09/05 07:532008/01/03 18:00
corp logoAutaris INC2007/04/07 01:522007/09/05 07:52
corp logoPerkone2007/04/07 01:342007/04/07 01:51
corp logoQuikcylvur2007/01/07 05:002007/04/07 01:33
corp logoState War Academy2006/12/01 23:472007/01/07 04:59


Any pilots, corporations, or alliances that relate to actual people or entities are purely coincidental.
7q/16ms Disclaimer A / C Brought to you by: Squizz Caphinator Forum Thread
EVE Online and the EVE logo are the registered trademarks of CCP hf. All rights are reserved worldwide. All other trademarks are the property of their respective owners. EVE Online, the EVE logo, EVE and all associated logos and designs are the intellectual property of CCP hf. All artwork, screenshots, characters, vehicles, storylines, world facts or other recognizable features of the intellectual property relating to these trademarks are likewise the intellectual property of CCP hf. CCP hf. has granted permission to evewho.com to use EVE Online and all associated logos and designs for promotional and information purposes on its website but does not endorse, and is not in any way affiliated with, evewho.com. CCP is in no way responsible for the content on or functioning of this website, nor can it be liable for any damage arising from the use of this website.